Location: M?digepalle
(16.1753°N, 80.3496°E)
Time: 12:43:21
(UTC+00:00)

Cosmos 1076 Rocket - Pass Details

Date: 29 October 2020
Orbit: 589 x 613 km, 82.5° (Epoch: 23 November)

Event Time Altitude Azimuth Distance (km) Brightness Sun altitude
Rises 13:44:56 0° 353° (N) 2,817 6.9 -23.3°
Reaches altitude 10° 13:47:07 10° 352° (N) 1,918 6.1 -23.8°
Enters shadow 13:50:19 50° 343° (NNW) 755 3.9 -24.6°
Exits shadow 13:51:26 79° 249° (WSW) 608 3.5 -24.8°
Drops below altitude 10° 13:55:37 10° 180° (S) 1,928 6.2 -25.8°
Sets 13:57:49 0° 179° (S) 2,833 7.0 -26.3°
